Weather History for KORE - December, 2013

Change the Weather History Date:

Monday, December 2, 2013

  Actual Average Record
Temperature  
Mean Temperature 34 °F -  
Max Temperature 37 °F 39 °F 60 °F (1998)
Min Temperature 32 °F 21 °F 12 °F (2000)
Degree Days  
Heating Degree Days 30    
Moisture  
Dew Point 33 °F    
Average Humidity 94    
Maximum Humidity 100    
Minimum Humidity 86    
Precipitation  
Precipitation 0.00 in - - ()
Sea Level Pressure  
Sea Level Pressure 29.96 in    
Wind  
Wind Speed 0 mph (North)    
Max Wind Speed 4 mph    
Max Gust Speed -    
Visibility 5 miles    
Events Fog , Rain    
Averages and records for this station are not official NWS values.
T = Trace of Precipitation, MM = Missing Value Source: NWS Daily Summary

Daily Weather History Graph

Daily Weather History Graph

Search for Another Location

Airport or City:

Trip Planner

Search our weather history database for the weather conditions in past years. The results will help you decide how hot, cold, wet, or windy it might be!

Date:

Astronomy

Dec. 02, 2013 Rise Set
Actual Time 7:00 AM EST 4:16 PM EST
Civil Twilight 6:29 AM EST 4:48 PM EST
Nautical Twilight 5:53 AM EST 5:23 PM EST
Astronomical Twilight 5:19 AM EST 5:57 PM EST
Moon 6:21 AM EST (12/2) 4:17 PM EST (12/2)
Length of Visible Light 10h 19m
Length of Day
9h 15m
Waning Crescent, 0% of the Moon is Illuminated
Dec 2
Waning Crescent
Dec 2
New
Dec 9
First Quarter
Dec 17
Full
Dec 25
Last Quarter

Hourly Weather History & Observations

Time (EST) Temp. Windchill Dew Point Humidity Pressure Visibility Wind Dir Wind Speed Gust Speed Precip Events Conditions
12:52 AM 35.1 °F - 32.0 °F 89% 30.04 in 10.0 mi Calm Calm - N/A   Overcast
1:00 AM 34.0 °F - 32.0 °F 92% 30.01 in 10.0 mi Calm Calm - N/A   Overcast
1:10 AM 34.0 °F - 32.0 °F 92% 30.01 in 10.0 mi Calm Calm - N/A   Overcast
1:28 AM 35.1 °F 32.2 °F 32.0 °F 89% 30.01 in 10.0 mi NE 3.5 mph - N/A   Overcast
1:52 AM 35.1 °F - 32.0 °F 89% 30.02 in 10.0 mi Calm Calm - N/A   Overcast
2:52 AM 34.0 °F - 32.0 °F 92% 30.02 in 10.0 mi Calm Calm - N/A   Overcast
3:52 AM 34.0 °F - 32.0 °F 92% 30.01 in 10.0 mi Calm Calm - N/A   Overcast
4:52 AM 34.0 °F - 32.0 °F 92% 30.00 in 10.0 mi Calm Calm - N/A   Overcast
5:33 AM 33.1 °F - 32.0 °F 96% 29.98 in 2.0 mi Calm Calm - N/A   Overcast
5:45 AM 33.1 °F - 32.0 °F 96% 29.98 in 3.0 mi Calm Calm - N/A   Overcast
5:52 AM 33.1 °F - 32.0 °F 96% 30.00 in 3.0 mi Calm Calm - N/A   Overcast
6:04 AM 33.1 °F 30.0 °F 32.0 °F 96% 29.98 in 2.5 mi NNW 3.5 mph - N/A   Overcast
6:52 AM 33.1 °F - 32.0 °F 96% 29.99 in 2.5 mi Calm Calm - N/A   Overcast
7:11 AM 33.1 °F - 33.1 °F 100% 29.97 in 1.2 mi Calm Calm - N/A   Overcast
7:15 AM 33.1 °F - 33.1 °F 100% 29.97 in 0.8 mi Calm Calm - N/A   Overcast
7:52 AM 34.0 °F - 33.1 °F 96% 30.00 in 0.2 mi Calm Calm - N/A Fog Fog
8:52 AM 34.0 °F - 34.0 °F 100% 30.00 in 0.8 mi Calm Calm - N/A   Overcast
9:14 AM 34.0 °F - 34.0 °F 100% 29.98 in 1.0 mi Calm Calm - N/A   Overcast
9:35 AM 35.1 °F - 34.0 °F 96% 29.98 in 0.8 mi Calm Calm - N/A   Overcast
9:52 AM 35.1 °F 32.2 °F 34.0 °F 96% 30.00 in 1.0 mi NW 3.5 mph - N/A   Overcast
9:55 AM 35.1 °F 32.2 °F 34.0 °F 96% 29.98 in 1.5 mi NW 3.5 mph - N/A   Overcast
10:01 AM 35.1 °F 32.2 °F 34.0 °F 96% 29.98 in 3.0 mi NW 3.5 mph - N/A   Overcast
10:25 AM 36.0 °F - 34.0 °F 93% 29.97 in 10.0 mi Calm Calm - N/A   Overcast
10:52 AM 36.0 °F - 35.1 °F 97% 29.98 in 10.0 mi Calm Calm - N/A   Overcast
11:12 AM 37.0 °F - 34.0 °F 89% 29.96 in 10.0 mi Calm Calm - N/A   Overcast
11:52 AM 37.0 °F - 34.0 °F 89% 29.97 in 10.0 mi Calm Calm - N/A   Overcast
12:36 PM 37.9 °F - 34.0 °F 86% 29.94 in 10.0 mi Calm Calm - 0.00 in Rain Light Rain
12:52 PM 37.9 °F - 34.0 °F 86% 29.96 in 10.0 mi Calm Calm - 0.00 in Rain Light Rain
1:52 PM 37.9 °F - 35.1 °F 89% 29.94 in 10.0 mi Calm Calm - 0.00 in   Overcast
2:00 PM 37.9 °F - 35.1 °F 89% 29.92 in 10.0 mi Calm Calm - N/A   Overcast
2:24 PM 37.9 °F - 35.1 °F 89% 29.92 in 10.0 mi Calm Calm - N/A   Overcast
2:52 PM 37.9 °F - 35.1 °F 89% 29.93 in 10.0 mi Calm Calm - N/A   Overcast
3:21 PM 37.9 °F - 35.1 °F 89% 29.91 in 10.0 mi Calm Calm - N/A   Overcast
3:52 PM 37.0 °F - 35.1 °F 93% 29.93 in 10.0 mi Calm Calm - N/A   Overcast
4:52 PM 35.1 °F - 34.0 °F 96% 29.95 in 5.0 mi Calm Calm - N/A   Overcast
5:09 PM 35.1 °F - 34.0 °F 96% 29.93 in 6.0 mi Calm Calm - N/A   Overcast
5:18 PM 35.1 °F - 34.0 °F 96% 29.93 in 6.0 mi Calm Calm - N/A   Overcast
5:41 PM 35.1 °F - 33.1 °F 92% 29.93 in 2.5 mi Calm Calm - N/A   Overcast
5:50 PM 33.8 °F - 33.8 °F 100% 29.93 in 1.8 mi Calm Calm - N/A   Overcast
5:52 PM 34.0 °F - 34.0 °F 100% 29.95 in 2.0 mi Calm Calm - N/A   Overcast
6:00 PM 34.0 °F - 34.0 °F 100% 29.93 in 3.0 mi Calm Calm - N/A   Overcast
6:44 PM 34.0 °F - 33.1 °F 96% 29.93 in 1.5 mi Calm Calm - N/A   Overcast
6:46 PM 33.8 °F - 32.0 °F 93% 29.93 in 0.8 mi Calm Calm - N/A   Overcast
6:52 PM 33.1 °F - 32.0 °F 96% 29.95 in 0.5 mi Calm Calm - N/A Fog Fog
7:13 PM 32.0 °F - 30.9 °F 96% 29.93 in 0.2 mi Calm Calm - N/A Fog Fog
7:22 PM 32.0 °F - 30.9 °F 96% 29.93 in 0.2 mi Calm Calm - N/A Fog Fog
7:52 PM 32.0 °F - 30.9 °F 96% 29.95 in 0.2 mi Calm Calm - N/A Fog Fog
8:52 PM 32.0 °F - 32.0 °F 100% 29.94 in 0.5 mi Calm Calm - N/A Fog Fog
9:52 PM 33.1 °F 30.0 °F 32.0 °F 96% 29.95 in 0.2 mi East 3.5 mph - N/A Fog Fog
10:52 PM 33.1 °F 30.0 °F 32.0 °F 96% 29.94 in 0.5 mi ENE 3.5 mph - N/A Fog Fog
11:52 PM 32.0 °F 28.7 °F 30.9 °F 96% 29.95 in 0.5 mi ENE 3.5 mph - N/A Fog Fog